C/2016 X1 ( Lemmon )

Japanese version
Home page
Updated on May 20, 2019

---------------------------------------------------------------------

* Profile

Discovery Date December 8, 2016
Magnitude 20.1 mag
Discoverer G. J. Leonard (Mount Lemmon)

* Pictures

* Orbital Elements

Epoch 2019 Apr. 27.0 TT = JDT 2458600.5
T 2019 Apr. 29.73021 TT                                 MPCW
q   7.5642763            (2000.0)            P               Q
z  +0.0005852      Peri.  224.55676     -0.44336791     -0.78477934
 +/-0.0000014      Node   256.42671     +0.89508668     -0.36210447
e   0.9955732      Incl.   26.45591     +0.04737859     -0.50299278
From 206 observations 2016 Nov. 26-2019 May 2, mean residual 0".4.

* Magnitudes Graph

        m1 = -3.8 + 5 log d + 20.0 log r

---------------------------------------------------------------------

The orbital elements are published on M.P.E.C. 2019-J142.
The magnitudes graphs are made with Comet for Windows.

---------------------------------------------------------------------

Copyright(C) Seiichi Yoshida (comet@aerith.net). All rights reserved.